Change the Weather History Date:

Friday, November 2, 2012

  Actual Average Record
Temperature  
Mean Temperature 34 °F -  
Max Temperature 43 °F 54 °F 75 °F (1938)
Min Temperature 26 °F 38 °F 11 °F (1951)
Degree Days  
Heating Degree Days 30    
Moisture  
Dew Point 27 °F    
Average Humidity 76    
Maximum Humidity 95    
Minimum Humidity 49    
Precipitation  
Precipitation 0.00 in - - ()
Sea Level Pressure  
Sea Level Pressure 30.06 in    
Wind  
Wind Speed 5 mph (North)    
Max Wind Speed 9 mph    
Max Gust Speed -    
Visibility 10 miles    
Events      
Averages and records for this station are not official NWS values.
T = Trace of Precipitation, MM = Missing Value Source: NWS Daily Summary

Daily Weather History Graph

Daily Weather History Graph

Search for Another Location

Airport or City:

Trip Planner

Search our weather history database for the weather conditions in past years. The results will help you decide how hot, cold, wet, or windy it might be!

Date:

Astronomy

Nov. 02, 2012 Rise Set
Actual Time 7:31 AM CDT 5:44 PM CDT
Civil Twilight 7:01 AM CDT 6:14 PM CDT
Nautical Twilight 6:28 AM CDT 6:48 PM CDT
Astronomical Twilight 5:55 AM CDT 7:21 PM CDT
Moon 8:28 PM CDT (11/2) 10:55 AM CDT (11/2)
Length of Visible Light 11h 12m
Length of Day
10h 13m
Waning Gibbous, 87% of the Moon is Illuminated
Nov 2
Waning Gibbous
Nov 6
Last Quarter
Nov 13
New
Nov 20
First Quarter
Nov 28
Full

Hourly Weather History & Observations

Time (CDT) Temp. Windchill Dew Point Humidity Pressure Visibility Wind Dir Wind Speed Gust Speed Precip Events Conditions
12:15 AM 35.8 °F 28.8 °F 29.8 °F 79% 29.94 in 10.0 mi North 9.2 mph - N/A   Clear
12:35 AM 35.1 °F 29.3 °F 29.5 °F 80% 29.94 in 10.0 mi North 6.9 mph - N/A   Clear
12:55 AM 33.8 °F 27.7 °F 29.3 °F 84% 29.94 in 10.0 mi NNW 6.9 mph - N/A   Clear
1:15 AM 33.6 °F 27.5 °F 29.3 °F 84% 29.95 in 10.0 mi NNW 6.9 mph - N/A   Clear
1:35 AM 33.1 °F 28.7 °F 28.9 °F 85% 29.96 in 10.0 mi North 4.6 mph - N/A   Clear
1:55 AM 32.9 °F 26.7 °F 28.4 °F 84% 29.96 in 10.0 mi NNW 6.9 mph - N/A   Clear
2:15 AM 32.2 °F 28.9 °F 28.4 °F 86% 29.97 in 10.0 mi NW 3.5 mph - N/A   Clear
2:35 AM 32.0 °F 27.5 °F 28.2 °F 86% 29.98 in 10.0 mi NNW 4.6 mph - N/A   Clear
2:55 AM 32.0 °F - 28.2 °F 86% 29.98 in 10.0 mi Calm Calm - N/A   Clear
3:15 AM 31.8 °F - 28.2 °F 87% 29.98 in 10.0 mi Calm Calm - N/A   Clear
3:35 AM 30.2 °F - 27.3 °F 89% 29.98 in 10.0 mi Calm Calm - N/A   Clear
3:55 AM 30.2 °F 26.7 °F 27.5 °F 90% 29.98 in 10.0 mi North 3.5 mph - N/A   Clear
4:15 AM 30.0 °F 25.2 °F 27.3 °F 90% 29.99 in 10.0 mi North 4.6 mph - N/A   Clear
4:35 AM 31.1 °F 26.4 °F 28.2 °F 89% 29.99 in 10.0 mi NNW 4.6 mph - N/A   Clear
4:55 AM 30.7 °F 26.0 °F 28.0 °F 90% 29.99 in 10.0 mi NNW 4.6 mph - N/A   Clear
5:15 AM 30.2 °F 25.4 °F 27.5 °F 90% 30.00 in 10.0 mi NW 4.6 mph - N/A   Clear
5:35 AM 30.0 °F - 27.5 °F 90% 30.00 in 10.0 mi Calm Calm - N/A   Clear
5:55 AM 29.5 °F - 27.1 °F 91% 30.02 in 10.0 mi Calm Calm - N/A   Clear
6:15 AM 29.1 °F - 27.1 °F 92% 30.02 in 10.0 mi Calm Calm - N/A   Clear
6:35 AM 28.6 °F - 26.6 °F 92% 30.02 in 10.0 mi Calm Calm - N/A   Clear
6:55 AM 26.8 °F - 25.5 °F 95% 30.03 in 10.0 mi Calm Calm - N/A   Clear
7:15 AM 27.9 °F 24.0 °F 26.2 °F 94% 30.03 in 10.0 mi NW 3.5 mph - N/A   Clear
7:35 AM 27.9 °F 24.0 °F 26.1 °F 93% 30.04 in 10.0 mi NW 3.5 mph - N/A   Clear
7:55 AM 27.5 °F 23.6 °F 25.7 °F 93% 30.05 in 10.0 mi WNW 3.5 mph - N/A   Clear
8:15 AM 28.8 °F 23.7 °F 26.6 °F 92% 30.06 in 10.0 mi NW 4.6 mph - N/A   Clear
8:35 AM 30.0 °F 25.2 °F 27.3 °F 90% 30.06 in 10.0 mi NW 4.6 mph - N/A   Clear
8:55 AM 30.9 °F 25.2 °F 27.7 °F 88% 30.07 in 10.0 mi NW 5.8 mph - N/A   Clear
9:15 AM 32.0 °F 25.6 °F 28.2 °F 86% 30.08 in 10.0 mi NW 6.9 mph - N/A   Clear
9:35 AM 33.1 °F 27.7 °F 28.4 °F 83% 30.08 in 10.0 mi North 5.8 mph - N/A   Clear
9:55 AM 34.9 °F 28.3 °F 28.4 °F 77% 30.08 in 10.0 mi North 8.1 mph - N/A   Clear
10:15 AM 36.0 °F 29.6 °F 27.7 °F 72% 30.08 in 10.0 mi NNE 8.1 mph - N/A   Clear
10:35 AM 37.0 °F 31.6 °F 27.0 °F 67% 30.09 in 10.0 mi North 6.9 mph - N/A   Clear
10:55 AM 36.7 °F 32.0 °F 25.9 °F 65% 30.09 in 10.0 mi North 5.8 mph - N/A   Scattered Clouds
11:15 AM 38.5 °F 32.1 °F 26.2 °F 61% 30.10 in 10.0 mi NNW 9.2 mph - N/A   Scattered Clouds
11:35 AM 38.7 °F 35.2 °F 25.7 °F 60% 30.10 in 10.0 mi North 4.6 mph - N/A   Scattered Clouds
11:55 AM 39.2 °F 35.0 °F 26.1 °F 59% 30.10 in 10.0 mi NNW 5.8 mph - N/A   Clear
12:15 PM 39.9 °F 36.7 °F 26.1 °F 58% 30.10 in 10.0 mi NNW 4.6 mph - N/A   Scattered Clouds
12:35 PM 40.1 °F 34.7 °F 26.1 °F 57% 30.10 in 10.0 mi NNW 8.1 mph - N/A   Clear
12:55 PM 41.2 °F - 26.4 °F 56% 30.09 in 10.0 mi Calm Calm - N/A   Clear
1:15 PM 42.1 °F 39.2 °F 26.1 °F 53% 30.09 in 10.0 mi NE 4.6 mph - N/A   Clear
1:35 PM 42.4 °F 39.6 °F 25.3 °F 51% 30.09 in 10.0 mi NNE 4.6 mph - N/A   Clear
1:55 PM 43.2 °F 39.7 °F 25.7 °F 50% 30.09 in 10.0 mi North 5.8 mph - N/A   Clear
2:15 PM 43.2 °F - 25.2 °F 49% 30.08 in 10.0 mi Calm Calm - N/A   Clear
2:35 PM 43.9 °F 39.3 °F 25.7 °F 49% 30.08 in 10.0 mi NW 8.1 mph - N/A   Clear
2:55 PM 43.5 °F 40.9 °F 25.5 °F 49% 30.08 in 10.0 mi North 4.6 mph - N/A   Clear
3:35 PM 42.8 °F 40.1 °F 25.5 °F 51% 30.09 in 10.0 mi NW 4.6 mph - N/A   Clear
3:55 PM 42.1 °F 38.4 °F 26.1 °F 53% 30.08 in 10.0 mi NNW 5.8 mph - N/A   Clear
4:15 PM 41.9 °F 39.0 °F 25.9 °F 53% 30.09 in 10.0 mi NW 4.6 mph - N/A   Clear
4:55 PM 41.9 °F 39.0 °F 25.7 °F 53% 30.09 in 10.0 mi North 4.6 mph - N/A   Clear
5:15 PM 40.6 °F - 25.3 °F 54% 30.09 in 10.0 mi Calm Calm - N/A   Clear
5:35 PM 39.4 °F 37.2 °F 25.3 °F 57% 30.09 in 10.0 mi NW 3.5 mph - N/A   Clear
5:55 PM 38.7 °F - 25.5 °F 59% 30.10 in 10.0 mi Calm Calm - N/A   Clear
6:15 PM 36.3 °F 32.5 °F 25.0 °F 63% 30.10 in 10.0 mi NE 4.6 mph - N/A   Clear
6:55 PM 33.6 °F - 25.3 °F 72% 30.11 in 10.0 mi Calm Calm - N/A   Clear
7:15 PM 32.0 °F - 24.8 °F 75% 30.11 in 10.0 mi Calm Calm - N/A   Clear
7:35 PM 32.2 °F - 25.3 °F 76% 30.11 in 10.0 mi Calm Calm - N/A   Clear
7:55 PM 31.1 °F 26.4 °F 24.8 °F 77% 30.11 in 10.0 mi East 4.6 mph - N/A   Clear
8:15 PM 31.8 °F 27.3 °F 25.0 °F 76% 30.11 in 10.0 mi East 4.6 mph - N/A   Clear
8:35 PM 31.5 °F 28.1 °F 25.3 °F 78% 30.11 in 10.0 mi East 3.5 mph - N/A   Clear
8:55 PM 32.4 °F 27.9 °F 26.6 °F 79% 30.12 in 10.0 mi ESE 4.6 mph - N/A   Clear
9:15 PM 31.1 °F 26.4 °F 26.2 °F 82% 30.13 in 10.0 mi East 4.6 mph - N/A   Clear
9:35 PM 31.5 °F 28.1 °F 26.6 °F 82% 30.13 in 10.0 mi ESE 3.5 mph - N/A   Clear
9:55 PM 30.9 °F - 26.4 °F 83% 30.14 in 10.0 mi Calm Calm - N/A   Clear
10:35 PM 30.0 °F - 25.7 °F 84% 30.15 in 10.0 mi Calm Calm - N/A   Clear
10:55 PM 31.1 °F - 26.6 °F 83% 30.16 in 10.0 mi Calm Calm - N/A   Clear
11:15 PM 27.7 °F - 25.0 °F 90% 30.15 in 10.0 mi Calm Calm - N/A   Clear
11:35 PM 29.5 °F - 26.4 °F 88% 30.16 in 10.0 mi Calm Calm - N/A   Clear
11:55 PM 28.8 °F - 26.2 °F 90% 30.16 in 10.0 mi Calm Calm - N/A   Clear